San Angelo Regional Mathis Field
KSJT : now visible

Airfield :











YOU CAN JOIN US ON...

 
LOGIN :

Register | Disclaimer

   EN    FR    IT 

 









Legend :    VFR   Marginal VFR   IFR   Intensive IFR   Very Intensive IFR
Visi :
Ceiling :
>= 8 km
>= 3000ft
5 to 8 km
1000 to 3000 ft
1500m to 5 km
500 to 1000 ft
800 to 1500m
200 to 500 ft
< 800m
< 200 ft
Symbols :   Thunderstorms  Fog  Heavy snow  Heavy precipitations  Wind > 20 kt






- Airport Elevation : 1919 ft
- IATA code : SJT


KSJT - San Angelo Regional Mathis Field

CURRENT METAR :
  • 170551Z AUTO 20003KT 10SM CLR 22/15 A2995 RMK AO2 SLP117 T02170150 10322 20217 403390167 51012

EXPIRED METARs :
  • 170451Z AUTO 13005KT 10SM CLR 24/15 A2994 RMK AO2 SLP114 T02390150
  • 170351Z AUTO 11006KT 10SM CLR 25/15 A2993 RMK AO2 SLP109 T02500150

TAF KSJT
Valid from the 17 at 06:00 until the 18 at 06:00 UTC


170530Z 1706/1806 17005KT P6SM SKC
FM171500 18009KT P6SM SKC
KZFW FIR / North America



MET'MAP, your aeronautical weather chart ! - Copyright ORBIFLY December 2007 - Disclaimer

ORBIFLY MET'MAP TEAM :

Programming & Development : Alexandra Zaïnal
Concept & original design : Baudouin d'Aumeries
Assistance for programming : Marc-Olivier Méhu
Technical & hardware support : Manuel Goepfert

Contact : metmap@orbifly.com




SOURCES & CREDITS :

   NOAA       Earth
Advisory